Voltar ao catálogo

Zorkiy-2M 7

AtivoMilitarSSO
NORAD 67268·PAYLOAD·🇷🇺 Russia

Lançado Dec 28, 2025 de Vostochny Cosmodrome

Loading…

Próximas Passagens (próximas 24 horas)

TLE

AtualizadoSource: Space-Track

Época: Sep 14, 2026, 10:34 UTC

1 67268U 25313W   26257.44057513  .00005103  00000-0  21541-3 0  9999
2 67268  97.3877 330.6676 0015642  55.0886 305.1819 15.23612043 39537

Acompanhe Zorkiy-2M 7 em tempo real com AllMySat

Download on the App Store